Location: Newark
(13.8117°N, 3.6025°W)
Time: 07:00:58
(UTC+00:00)

S-56A Canister/Altair - All Passes

Search period start: 25 August 2019 00:00
Search period end: 04 September 2019 00:00
Orbit: 633 x 2499 km, 38.9° (Epoch: 24 August)

Date Brightness Start Highest point End Pass type
(mag) Time Alt. Az. Time Alt. Az. Time Alt. Az.
25 Aug - 01:15:38 10° N 01:18:32 15° NE 01:21:54 10° ENE night (unlit)
25 Aug - 03:16:35 10° NW 03:22:34 85° NE 03:31:45 10° SE visible
25 Aug - 05:21:46 10° W 05:27:52 24° SW 05:35:58 10° SSE visible
25 Aug - 16:13:55 10° SSW 16:23:20 38° SE 16:29:49 10° ENE daylight
25 Aug - 18:20:04 10° WSW 18:27:55 47° NW 18:33:20 10° NE daylight
26 Aug - 00:44:33 10° NNE 00:45:46 11° NNE 00:47:04 10° NE night (unlit)
26 Aug - 02:44:16 10° NW 02:49:50 70° NE 02:58:12 10° ESE visible
26 Aug - 04:48:50 10° W 04:54:46 26° SW 05:02:54 10° SSE visible
26 Aug - 15:40:38 10° SSW 15:50:17 34° SE 15:57:04 10° E daylight
26 Aug - 17:46:20 10° WSW 17:55:13 59° NW 18:01:06 10° NE daylight
27 Aug - 02:11:59 10° NW 02:17:10 56° NE 02:24:39 10° ESE visible
27 Aug - 04:16:01 10° W 04:21:46 29° SW 04:29:47 10° SSE visible
27 Aug - 15:07:23 10° SSW 15:17:09 30° SE 15:24:13 10° E daylight
27 Aug - 17:12:37 10° WSW 17:22:27 72° NW 17:28:48 10° NE daylight
27 Aug - 19:23:36 10° WNW 19:26:42 13° NNW 19:29:24 10° N visible
28 Aug - 01:39:46 10° NNW 01:44:33 43° NE 01:51:07 10° ESE night (unlit)
28 Aug - 03:43:18 10° W 03:48:49 33° SW 03:56:39 10° SSE visible
28 Aug - 14:34:11 10° SSW 14:43:56 27° SE 14:51:14 10° E daylight
28 Aug - 16:38:54 10° SW 16:49:36 84° NW 16:56:26 10° NE daylight
28 Aug - 18:49:04 10° WNW 18:53:54 18° NW 18:57:48 10° N visible
29 Aug - 01:07:36 10° NNW 01:11:58 33° NE 01:17:36 10° ESE night (unlit)
29 Aug - 03:10:40 10° WNW 03:15:58 38° SW 03:23:32 10° SSE visible
29 Aug - 14:01:02 10° S 14:10:39 24° SE 14:18:05 10° E daylight
29 Aug - 16:05:12 10° SW 16:16:39 84° SE 16:24:00 10° NE daylight
29 Aug - 18:14:45 10° W 18:21:06 23° NW 18:25:55 10° NNE daylight
30 Aug - 00:35:30 10° NNW 00:39:22 25° NE 00:44:05 10° E night (unlit)
30 Aug - 02:38:06 10° WNW 02:43:12 44° SW 02:50:26 10° SSE visible
30 Aug - 13:28:00 10° S 13:37:17 22° SE 13:44:44 10° E daylight
30 Aug - 15:31:31 10° SW 15:43:38 73° SE 15:51:30 10° ENE daylight
30 Aug - 17:40:30 10° W 17:48:17 29° NW 17:53:54 10° NNE daylight
31 Aug - 00:03:26 10° NNW 00:06:46 20° NE 00:10:31 10° E night (unlit)
31 Aug - 02:05:36 10° WNW 02:10:29 53° SW 02:17:21 10° SE night (unlit)
31 Aug - 12:55:07 10° S 13:03:50 19° SE 13:11:09 10° ESE daylight
31 Aug - 14:57:53 10° SW 15:10:30 65° SE 15:18:54 10° ENE daylight
31 Aug - 17:06:19 10° W 17:15:26 36° NW 17:21:45 10° NNE daylight
31 Aug - 23:31:29 10° N 23:34:06 15° NNE 23:36:54 10° ENE night (unlit)
01 Sep - 01:33:07 10° WNW 01:37:50 66° SW 01:44:17 10° SE night (unlit)
01 Sep - 03:41:44 10° SW 03:42:47 10° SSW 03:43:54 10° SSW visible
01 Sep - 12:22:26 10° S 12:30:20 17° SE 12:37:15 10° ESE daylight
01 Sep - 14:24:17 10° SW 14:37:17 57° SE 14:46:13 10° ENE daylight
01 Sep - 16:32:09 10° WSW 16:42:31 44° NW 16:49:32 10° NNE daylight
01 Sep - 22:59:47 10° N 23:01:24 12° NNE 23:03:02 10° NE night (unlit)
02 Sep - 01:00:41 10° NW 01:05:16 83° SW 01:11:16 10° SE night (unlit)
02 Sep - 03:07:40 10° SW 03:09:52 12° SSW 03:12:18 10° SSW night (unlit)
02 Sep - 11:50:04 10° S 11:56:47 14° SE 12:02:53 10° ESE daylight
02 Sep - 13:50:45 10° SSW 14:04:00 51° SE 14:13:24 10° ENE daylight
02 Sep - 15:58:02 10° WSW 16:09:32 52° NW 16:17:13 10° NE daylight
02 Sep - 18:11:27 10° NW 18:14:49 13° NNW 18:17:46 10° N daylight
03 Sep - 00:28:16 10° NW 00:32:44 77° NE 00:38:15 10° SE night (unlit)
03 Sep - 02:34:15 10° WSW 02:36:59 14° SW 02:40:09 10° S night (unlit)
03 Sep - 11:18:19 10° SSE 11:23:11 12° SE 11:27:46 10° ESE daylight
03 Sep - 13:17:18 10° SSW 13:30:37 46° SE 13:40:28 10° ENE daylight
03 Sep - 15:23:57 10° WSW 15:36:29 61° NW 15:44:50 10° NE daylight
03 Sep - 17:36:25 10° WNW 17:41:49 16° NNW 17:46:11 10° N daylight
